{"data":{"norad_id":53824,"intl_designator":"2022-114G","name":"STARLINK-4757","alt_names":[],"object_type":"PAYLOAD","status":"ACTIVE","operator":null,"country":"US","launch_date":"2022-09-19","launch_site_code":"AFETR","launch_vehicle":null,"mission":null,"orbit_class":"UNKNOWN","rcs_meters":null,"size_class":null,"mass_kg":null,"dimensions":null,"purposes":["comms"],"wikipedia_slug":null,"has_3d_model":false,"image_url":null,"decayed_at":null,"tle_current":{"epoch":"2026-05-24T21:21:56.238336Z","epoch_age_seconds":95262,"freshness":"FRESH","line1":"1 53824U 22114G   26144.89023424  .00000298  00000+0  36795-4 0  9993","line2":"2 53824  53.2150 321.4500 0001378  82.6427 277.4722 15.08840680204257","mean_motion":15.0884068,"eccentricity":0.0001378,"inclination_deg":53.215,"raan_deg":321.45,"arg_perigee_deg":82.6427,"mean_anomaly_deg":277.4722,"bstar":3.6795e-5,"rev_number":20425,"period_min":95.437511666242,"perigee_km":538.78802684574,"apogee_km":540.69459410811,"semimajor_km":6917.8783104769,"source":"CELESTRAK","updated_at":"2026-05-25T13:38:17.570149Z"}}}